Weather History for KVPC - December, 2012

Change the Weather History Date:

Tuesday, December 11, 2012

  Actual Average Record
Temperature  
Mean Temperature 40 °F 43 °F  
Max Temperature 45 °F 54 °F 75 °F (2007)
Min Temperature 35 °F 32 °F 24 °F (2013)
Degree Days  
Heating Degree Days 25 22  
Month to date heating degree days 226  
Since 1 July heating degree days 835  
Moisture  
Dew Point 33 °F    
Average Humidity 79    
Maximum Humidity 93    
Minimum Humidity 66    
Precipitation  
Precipitation 0.00 in 0.17 in 1.22 in (2008)
Month to date precipitation 1.80  
Year to date precipitation 47.49  
Sea Level Pressure  
Sea Level Pressure 30.05 in    
Wind  
Wind Speed 4 mph (NNW)    
Max Wind Speed 10 mph    
Max Gust Speed 16 mph    
Visibility 10 miles    
Events      
T = Trace of Precipitation, MM = Missing Value Source: NWS Daily Summary

Daily Weather History Graph

Daily Weather History Graph

Search for Another Location

Airport or City:

Trip Planner

Search our weather history database for the weather conditions in past years. The results will help you decide how hot, cold, wet, or windy it might be!

Date:

Astronomy

Dec. 11, 2012 Rise Set
Actual Time 7:35 AM EST 5:30 PM EST
Civil Twilight 7:07 AM EST 5:58 PM EST
Nautical Twilight 6:36 AM EST 6:29 PM EST
Astronomical Twilight 6:05 AM EST 6:59 PM EST
Moon 5:31 AM EST (12/11) 4:06 PM EST (12/11)
Length of Visible Light 10h 50m
Length of Day
9h 55m
Waning Crescent, 4% of the Moon is Illuminated
Dec 11
Waning Crescent
Dec 13
New
Dec 20
First Quarter
Dec 28
Full
Jan 4
Last Quarter

Hourly Weather History & Observations

Time (EST) Temp. Windchill Dew Point Humidity Pressure Visibility Wind Dir Wind Speed Gust Speed Precip Events Conditions
12:53 AM 45.0 °F 43.5 °F 39.9 °F 82% 29.90 in 10.0 mi Variable 3.5 mph - N/A   Mostly Cloudy
1:00 AM 44.6 °F 43.1 °F 39.2 °F 81% 29.91 in 10.0 mi NW 3.5 mph - N/A   Scattered Clouds
1:10 AM 44.6 °F 41.4 °F 39.2 °F 81% 29.92 in 10.0 mi Variable 5.8 mph - N/A   Mostly Cloudy
1:53 AM 43.0 °F 41.3 °F 39.0 °F 86% 29.90 in 10.0 mi NW 3.5 mph - N/A   Scattered Clouds
2:53 AM 41.0 °F 39.0 °F 36.0 °F 82% 29.91 in 10.0 mi Variable 3.5 mph - N/A   Clear
3:53 AM 39.0 °F 36.8 °F 35.1 °F 86% 29.93 in 10.0 mi NW 3.5 mph - N/A   Clear
4:53 AM 37.0 °F - 34.0 °F 89% 29.95 in 10.0 mi Calm Calm - N/A   Clear
5:53 AM 36.0 °F 33.3 °F 32.0 °F 86% 29.98 in 10.0 mi Variable 3.5 mph - N/A   Partly Cloudy
6:31 AM 35.6 °F - 33.8 °F 93% 30.01 in 10.0 mi Calm Calm - N/A   Mostly Cloudy
6:53 AM 36.0 °F - 32.0 °F 86% 30.00 in 10.0 mi Calm Calm - N/A   Overcast
7:53 AM 37.0 °F - 33.1 °F 86% 30.04 in 10.0 mi Calm Calm - N/A   Overcast
8:53 AM 37.0 °F 33.3 °F 33.1 °F 86% 30.05 in 10.0 mi NNW 4.6 mph - N/A   Overcast
9:53 AM 37.9 °F 33.5 °F 32.0 °F 79% 30.08 in 10.0 mi Variable 5.8 mph - N/A   Overcast
10:53 AM 39.0 °F 34.0 °F 32.0 °F 76% 30.09 in 10.0 mi Variable 6.9 mph - N/A   Overcast
11:53 AM 39.0 °F 32.3 °F 32.0 °F 76% 30.08 in 10.0 mi NNW 10.4 mph 16.1 mph N/A   Overcast
12:53 PM 39.9 °F 35.1 °F 32.0 °F 73% 30.07 in 10.0 mi North 6.9 mph - N/A   Overcast
1:46 PM 41.0 °F 35.8 °F 32.0 °F 70% 30.07 in 10.0 mi North 8.1 mph - N/A   Scattered Clouds
1:53 PM 41.0 °F 37.1 °F 32.0 °F 70% 30.07 in 10.0 mi NNW 5.8 mph - N/A   Partly Cloudy
2:25 PM 42.8 °F 38.0 °F 32.0 °F 66% 30.08 in 10.0 mi North 8.1 mph - N/A   Mostly Cloudy
2:38 PM 42.8 °F 37.5 °F 32.0 °F 66% 30.08 in 10.0 mi North 9.2 mph - N/A   Scattered Clouds
2:53 PM 41.0 °F 37.1 °F 32.0 °F 70% 30.08 in 10.0 mi Variable 5.8 mph - N/A   Clear
3:53 PM 41.0 °F 37.1 °F 32.0 °F 70% 30.09 in 10.0 mi North 5.8 mph - N/A   Clear
4:53 PM 39.9 °F 35.1 °F 32.0 °F 73% 30.11 in 9.0 mi NNW 6.9 mph - N/A   Clear
5:53 PM 37.9 °F 33.5 °F 30.9 °F 76% 30.11 in 10.0 mi Variable 5.8 mph - N/A   Clear
6:53 PM 37.0 °F - 30.9 °F 79% 30.12 in 10.0 mi Calm Calm - N/A   Clear
7:53 PM 37.0 °F - 30.0 °F 76% 30.13 in 10.0 mi Calm Calm - N/A   Clear
8:53 PM 36.0 °F - 30.0 °F 79% 30.13 in 10.0 mi Calm Calm - N/A   Clear
9:53 PM 36.0 °F - 30.9 °F 82% 30.16 in 10.0 mi Calm Calm - N/A   Clear
10:53 PM 37.0 °F - 30.0 °F 76% 30.16 in 10.0 mi Calm Calm - N/A   Clear
11:53 PM 37.0 °F - 30.9 °F 79% 30.18 in 10.0 mi Calm Calm - N/A   Clear